• In Russia
  • List of Countries
  • For 7 days
  • Water Temperature
  • Satellite Maps
  • Weather Map
  • Weather Widgets
  • user-avatar
    Login

    Hourly Weather Kiustendil

    Today, 21 November, Wednesday

    Time Temperature Precipitation Wind Pressure Humidity
    00:00 +2°C° 0.3 mm 2 mps 621 mmHg 93%
    01:00 +1°C° 0 mm 2 mps 621 mmHg 95%
    02:00 +2°C° 0.3 mm 2 mps 620 mmHg 95%
    03:00 +2°C° 0.3 mm 2 mps 620 mmHg 95%
    04:00 +2°C° 0.3 mm 2 mps 620 mmHg 95%
    05:00 +2°C° 0.8 mm 2 mps 619 mmHg 94%
    06:00 +3°C° 0.8 mm 1 mps 619 mmHg 94%
    07:00 +3°C° 0 mm 1 mps 620 mmHg 94%
    08:00 +3°C° 0.9 mm 1 mps 620 mmHg 93%
    09:00 +3°C° 0.9 mm 1 mps 620 mmHg 92%
    10:00 +4°C° 0.9 mm 1 mps 620 mmHg 91%
    11:00 +3°C° 0.5 mm 1 mps 620 mmHg 89%
    12:00 +2°C° 0.5 mm 2 mps 620 mmHg 88%
    13:00 +2°C° 0.5 mm 2 mps 620 mmHg 87%
    14:00 +2°C° 0.2 mm 2 mps 620 mmHg 87%
    15:00 +1°C° 0.2 mm 2 mps 620 mmHg 88%
    16:00 -1°C° 0.2 mm 2 mps 620 mmHg 88%
    17:00 -1°C° 0.1 mm 2 mps 620 mmHg 88%
    18:00 -2°C° 0.1 mm 2 mps 621 mmHg 89%
    19:00 -2°C° 0.1 mm 2 mps 621 mmHg 89%
    20:00 -2°C° 0 mm 2 mps 621 mmHg 89%
    21:00 -3°C° 0 mm 2 mps 621 mmHg 89%
    22:00 -3°C° 0 mm 2 mps 622 mmHg 89%
    23:00 -3°C° 0 mm 2 mps 622 mmHg 89%

    Tomorrow, 22 November, Thursday

    Time Temperature Precipitation Wind Pressure Humidity
    00:00 -3°C° 0 mm 2 mps 622 mmHg 89%
    01:00 -1°C° 0 mm 1 mps 622 mmHg 89%
    02:00 -2°C° 0.1 mm 1 mps 622 mmHg 89%
    03:00 -2°C° 0.1 mm 1 mps 622 mmHg 89%
    04:00 -2°C° 0.1 mm 1 mps 622 mmHg 89%
    05:00 -2°C° 0 mm 1 mps 622 mmHg 89%
    06:00 -2°C° 0 mm 1 mps 623 mmHg 88%
    07:00 -2°C° 0 mm 1 mps 623 mmHg 88%
    08:00 -1°C° 0 mm 1 mps 624 mmHg 82%
    09:00 +1°C° 0 mm 1 mps 624 mmHg 76%
    10:00 +2°C° 0 mm 1 mps 625 mmHg 71%
    11:00 +3°C° 0 mm 1 mps 625 mmHg 69%
    12:00 +4°C° 0 mm 1 mps 625 mmHg 67%
    13:00 +4°C° 0 mm 1 mps 626 mmHg 65%
    14:00 +3°C° 0 mm 1 mps 625 mmHg 70%
    15:00 +2°C° 0 mm 1 mps 625 mmHg 74%
    16:00 +1°C° 0 mm 1 mps 625 mmHg 78%
    17:00 +1°C° 0 mm 1 mps 625 mmHg 80%
    18:00 0°C° 0 mm 1 mps 625 mmHg 82%
    19:00 0°C° 0 mm 1 mps 626 mmHg 85%
    20:00 -1°C° 0 mm 1 mps 626 mmHg 85%
    21:00 -1°C° 0 mm 1 mps 626 mmHg 86%
    22:00 -1°C° 0 mm 1 mps 626 mmHg 86%
    23:00 -2°C° 0 mm 1 mps 626 mmHg 87%

    Day after tomorrow, 23 November, Friday

    Time Temperature Precipitation Wind Pressure Humidity
    00:00 -2°C° 0 mm 1 mps 626 mmHg 87%
    01:00 -2°C° 0 mm 1 mps 626 mmHg 88%
    02:00 -2°C° 0 mm 1 mps 626 mmHg 88%
    03:00 -3°C° 0 mm 1 mps 626 mmHg 88%
    04:00 -3°C° 0 mm 1 mps 626 mmHg 87%
    05:00 -3°C° 0 mm 1 mps 626 mmHg 87%
    06:00 -3°C° 0 mm 1 mps 626 mmHg 87%
    07:00 -3°C° 0 mm 1 mps 627 mmHg 86%
    08:00 -1°C° 0 mm 1 mps 627 mmHg 80%
    09:00 +1°C° 0 mm 1 mps 628 mmHg 74%
    10:00 +3°C° 0 mm 1 mps 629 mmHg 68%
    11:00 +4°C° 0 mm 1 mps 629 mmHg 66%
    12:00 +4°C° 0 mm 1 mps 629 mmHg 64%
    13:00 +5°C° 0 mm 1 mps 629 mmHg 62%
    14:00 +4°C° 0 mm 1 mps 629 mmHg 66%
    15:00 +3°C° 0 mm 1 mps 628 mmHg 71%
    16:00 +2°C° 0 mm 1 mps 628 mmHg 75%
    17:00 +1°C° 0 mm 1 mps 628 mmHg 78%
    18:00 0°C° 0 mm 1 mps 628 mmHg 80%
    19:00 0°C° 0 mm 1 mps 628 mmHg 83%
    20:00 -1°C° 0 mm 1 mps 628 mmHg 84%
    21:00 -1°C° 0 mm 1 mps 628 mmHg 85%
    22:00 -1°C° 0 mm 1 mps 628 mmHg 86%
    23:00 -1°C° 0 mm 1 mps 628 mmHg 87%

    24 November, Saturday

    Time Temperature Precipitation Wind Pressure Humidity
    00:00 -2°C° 0 mm 1 mps 628 mmHg 88%
    01:00 -2°C° 0 mm 1 mps 627 mmHg 88%
    02:00 -2°C° 0 mm 1 mps 627 mmHg 89%
    03:00 -2°C° 0 mm 1 mps 627 mmHg 90%
    04:00 -2°C° 0 mm 1 mps 626 mmHg 90%
    05:00 -2°C° 0 mm 1 mps 626 mmHg 91%
    06:00 -2°C° 0 mm 1 mps 626 mmHg 91%
    07:00 -2°C° 0 mm 1 mps 626 mmHg 91%
    08:00 0°C° 0 mm 1 mps 627 mmHg 85%
    09:00 -1°C° 0 mm 2 mps 627 mmHg 79%
    10:00 +2°C° 0 mm 2 mps 628 mmHg 73%
    11:00 +2°C° 0 mm 2 mps 627 mmHg 72%
    12:00 +3°C° 0 mm 2 mps 627 mmHg 70%
    13:00 +3°C° 0 mm 2 mps 626 mmHg 68%
    14:00 +2°C° 0 mm 2 mps 626 mmHg 72%
    15:00 +2°C° 0 mm 1 mps 626 mmHg 76%
    16:00 +2°C° 0 mm 1 mps 625 mmHg 79%
    17:00 +1°C° 0 mm 1 mps 625 mmHg 81%
    18:00 +1°C° 0 mm 1 mps 625 mmHg 83%
    19:00 0°C° 0 mm 1 mps 625 mmHg 85%
    20:00 0°C° 0 mm 1 mps 625 mmHg 85%
    21:00 0°C° 0 mm 1 mps 625 mmHg 85%
    22:00 0°C° 0 mm 1 mps 625 mmHg 85%
    23:00 0°C° 0 mm 1 mps 624 mmHg 85%

    25 November, Sunday

    Time Temperature Precipitation Wind Pressure Humidity
    00:00 0°C° 0 mm 1 mps 624 mmHg 86%
    01:00 0°C° 0 mm 1 mps 624 mmHg 86%
    02:00 0°C° 0 mm 1 mps 623 mmHg 86%
    03:00 -1°C° 0 mm 1 mps 623 mmHg 86%
    04:00 -1°C° 0 mm 1 mps 623 mmHg 86%
    05:00 -1°C° 0 mm 1 mps 623 mmHg 86%
    06:00 -1°C° 0 mm 1 mps 623 mmHg 86%
    07:00 -1°C° 0 mm 1 mps 623 mmHg 85%
    08:00 +1°C° 0 mm 1 mps 623 mmHg 79%
    09:00 +3°C° 0 mm 1 mps 624 mmHg 73%
    10:00 +4°C° 0 mm 2 mps 624 mmHg 67%
    11:00 +5°C° 0 mm 2 mps 624 mmHg 65%
    12:00 +6°C° 0 mm 2 mps 624 mmHg 63%
    13:00 +6°C° 0 mm 2 mps 623 mmHg 60%
    14:00 +5°C° 0 mm 2 mps 623 mmHg 66%
    15:00 +4°C° 0 mm 2 mps 622 mmHg 71%
    16:00 +3°C° 0 mm 1 mps 621 mmHg 77%
    17:00 +3°C° 0 mm 1 mps 621 mmHg 79%
    18:00 +2°C° 0 mm 2 mps 621 mmHg 82%
    19:00 +1°C° 0 mm 2 mps 621 mmHg 84%
    20:00 +1°C° 0.2 mm 2 mps 620 mmHg 86%
    21:00 +1°C° 0.2 mm 2 mps 620 mmHg 87%
    22:00 +1°C° 0.2 mm 2 mps 620 mmHg 88%
    23:00 +1°C° 0.3 mm 2 mps 619 mmHg 89%

    26 November, Monday

    Time Temperature Precipitation Wind Pressure Humidity
    00:00 +1°C° 0.3 mm 2 mps 619 mmHg 90%
    01:00 +1°C° 0.3 mm 2 mps 618 mmHg 90%
    02:00 +1°C° 0.3 mm 2 mps 618 mmHg 90%
    03:00 +1°C° 0.3 mm 2 mps 617 mmHg 90%
    04:00 +1°C° 0.3 mm 2 mps 617 mmHg 90%
    05:00 +1°C° 0.3 mm 2 mps 617 mmHg 90%
    06:00 +1°C° 0.3 mm 2 mps 617 mmHg 90%
    07:00 +2°C° 0.3 mm 2 mps 616 mmHg 90%
    08:00 +2°C° 0.3 mm 2 mps 617 mmHg 89%
    09:00 +3°C° 0.3 mm 2 mps 617 mmHg 87%
    10:00 +4°C° 0.3 mm 2 mps 617 mmHg 85%
    11:00 +3°C° 1 mm 2 mps 617 mmHg 86%
    12:00 +3°C° 1 mm 2 mps 617 mmHg 87%
    13:00 +3°C° 1 mm 2 mps 616 mmHg 88%
    14:00 +3°C° 0.4 mm 2 mps 616 mmHg 89%
    15:00 +3°C° 0.4 mm 1 mps 617 mmHg 89%
    16:00 +3°C° 0.4 mm 1 mps 617 mmHg 90%
    17:00 +2°C° 0 mm 1 mps 617 mmHg 91%
    18:00 +2°C° 0 mm 1 mps 617 mmHg 91%
    19:00 +1°C° 0 mm 1 mps 617 mmHg 92%
    20:00 +1°C° 0 mm 1 mps 617 mmHg 91%
    21:00 +1°C° 0 mm 1 mps 617 mmHg 91%
    22:00 0°C° 0 mm 1 mps 617 mmHg 91%
    23:00 0°C° 0 mm 1 mps 617 mmHg 90%
    Show more